Location: Rometta
(44.2000°N, 10.0500°E)
Time: 22:58:40
(UTC+00:00)

MOS 1 Rocket - Pass Details

Date: 20 January 2021
Orbit: 614 x 830 km, 97.4° (Epoch: 04 March)

Event Time Altitude Azimuth Distance (km) Brightness Sun altitude
Rises 17:02:10 0° 21° (NNE) 2,925 6.1 -8.8°
Reaches altitude 10° 17:04:34 10° 31° (NNE) 1,998 5.2 -9.2°
Maximum altitude 17:08:29 33° 96° (E) 1,036 3.7 -9.9°
Drops below altitude 10° 17:12:21 10° 161° (SSE) 1,971 5.6 -10.6°
Sets 17:14:42 0° 171° (S) 2,881 6.6 -11.0°
